Mobile, AL

9:46 PM CDT on August 28, 2016 (GMT -0500)
Mobile Regional

Weather History for KMOB - October, 2011

Change the Weather History Date:

Thursday, October 20, 2011

  Actual Average Record
Temperature  
Mean Temperature 50 °F 67 °F  
Max Temperature 66 °F 78 °F 89 °F (2004)
Min Temperature 34 °F 56 °F 33 °F (1989)
Degree Days  
Heating Degree Days 15 2  
Month to date heating degree days 36 20  
Since 1 July heating degree days 36 22  
Cooling Degree Days 0 4  
Month to date cooling degree days 93 121  
Year to date cooling degree days 2783 2425  
Moisture  
Dew Point 35 °F    
Average Humidity 60    
Maximum Humidity 92    
Minimum Humidity 28    
Precipitation  
Precipitation 0.00 in 0.12 in 1.84 in (1956)
Month to date precipitation 0.09 2.34  
Year to date precipitation 45.65 54.61  
Sea Level Pressure  
Sea Level Pressure 30.08 in    
Wind  
Wind Speed 4 mph (WNW)    
Max Wind Speed 15 mph    
Max Gust Speed 21 mph    
Visibility 10 miles    
Events      
T = Trace of Precipitation, MM = Missing Value Source: NWS Daily Summary

Daily Weather History Graph

Daily Weather History Graph

Search for Another Location

Airport or City:

Trip Planner

Search our weather history database for the weather conditions in past years. The results will help you decide how hot, cold, wet, or windy it might be!

Date:

Astronomy

Oct. 20, 2011 Rise Set
Actual Time 6:58 AM CDT 6:16 PM CDT
Civil Twilight 6:34 AM CDT 6:40 PM CDT
Nautical Twilight 6:06 AM CDT 7:08 PM CDT
Astronomical Twilight 5:38 AM CDT 7:36 PM CDT
Moon 12:12 AM CDT (10/20) 1:59 PM CDT (10/20)
Length of Visible Light 12h 06m
Length of Day
11h 17m
Last Quarter, 44% of the Moon is Illuminated
Oct 20
Last Quarter
Oct 26
New
Nov 2
First Quarter
Nov 10
Full
Nov 18
Last Quarter

Hourly Weather History & Observations

Time (CDT) Temp. Windchill Dew Point Humidity Pressure Visibility Wind Dir Wind Speed Gust Speed Precip Events Conditions
12:56 AM 39.9 °F 36.7 °F 36.0 °F 86% 30.03 in 10.0 mi West 4.6 mph - N/A   Clear
1:56 AM 39.0 °F 36.8 °F 36.0 °F 89% 30.04 in 10.0 mi West 3.5 mph - N/A   Clear
2:56 AM 41.0 °F 38.0 °F 36.0 °F 82% 30.04 in 10.0 mi WSW 4.6 mph - N/A   Clear
3:56 AM 37.0 °F 34.5 °F 35.1 °F 93% 30.04 in 10.0 mi West 3.5 mph - N/A   Clear
4:56 AM 39.2 °F 37.0 °F 35.6 °F 87% 30.06 in 10.0 mi West 3.5 mph - N/A   Clear
5:56 AM 37.9 °F - 35.1 °F 89% 30.07 in 10.0 mi Calm Calm - N/A   Clear
6:56 AM 37.0 °F 34.5 °F 35.1 °F 93% 30.07 in 10.0 mi NW 3.5 mph - N/A   Clear
7:56 AM 41.0 °F 39.0 °F 37.0 °F 86% 30.09 in 10.0 mi WNW 3.5 mph - N/A   Clear
8:56 AM 51.1 °F - 39.9 °F 66% 30.12 in 10.0 mi West 4.6 mph - N/A   Clear
9:56 AM 55.9 °F - 36.0 °F 47% 30.13 in 10.0 mi WNW 6.9 mph - N/A   Clear
10:56 AM 57.9 °F - 33.1 °F 39% 30.13 in 10.0 mi NW 9.2 mph - N/A   Clear
11:56 AM 62.1 °F - 30.9 °F 31% 30.10 in 10.0 mi NW 10.4 mph - N/A   Clear
12:56 PM 62.1 °F - 30.0 °F 30% 30.07 in 10.0 mi West 10.4 mph 17.3 mph N/A   Clear
1:56 PM 64.0 °F - 30.9 °F 29% 30.04 in 10.0 mi WNW 9.2 mph 18.4 mph N/A   Clear
2:56 PM 64.0 °F - 30.9 °F 29% 30.04 in 10.0 mi WNW 9.2 mph 20.7 mph N/A   Clear
3:56 PM 64.9 °F - 30.0 °F 27% 30.04 in 10.0 mi West 5.8 mph - N/A   Clear
4:56 PM 64.0 °F - 30.9 °F 29% 30.04 in 10.0 mi NW 5.8 mph - N/A   Clear
5:56 PM 59.0 °F - 33.1 °F 38% 30.06 in 10.0 mi NW 5.8 mph - N/A   Clear
6:56 PM 54.0 °F - 36.0 °F 51% 30.08 in 10.0 mi Calm Calm - N/A   Clear
7:56 PM 45.0 °F - 37.9 °F 76% 30.11 in 10.0 mi Calm Calm - N/A   Clear
8:56 PM 48.0 °F - 39.0 °F 71% 30.12 in 10.0 mi Calm Calm - N/A   Clear
9:56 PM 44.1 °F - 39.0 °F 82% 30.14 in 10.0 mi Calm Calm - N/A   Clear
10:56 PM 42.1 °F - 37.0 °F 82% 30.15 in 10.0 mi Calm Calm - N/A   Clear
11:56 PM 42.8 °F - 37.4 °F 81% 30.15 in 10.0 mi Calm Calm - N/A   Clear